TRANSIT 18 [?]

Last updated on Wed Jun 28 2023 00:03:29 GMT+0000 (Coordinated Universal Time)

1 03133U 68012A 23177.82303295 .00000121 00000+0 17100-3 0 9994 2 03133 90.0158 271.8818 0072673 256.5756 222.0117 13.51242914724157
UTC large
Height (km)
Speed (km/s)
/
Latitude / Longitude
Inclination (degrees)
Orbital Period (minutes)
Azimuth
Elevation
Range (km)
Doppler Factor

Next 0 passes for location: London (51.5072 / 0.1276)

Sorry there are no passes over London.